Location: Unspecified
(0.0000°N, 0.0000°E)
Time: 16:35:39
(UTC+00:00)

Explorer 11/Cluster Stage 4 - Visible Passes

Search period start: 01 April 2015 00:00
Search period end: 11 April 2015 00:00
Orbit: 468 x 1274 km, 28.8° (Epoch: 31 March)

Date Brightness Start Highest point End Pass type
(mag) Time Alt. Az. Time Alt. Az. Time Alt. Az.
01 Apr 9.7 03:57:06 10° N 03:58:54 11° NNE 04:01:06 10° NE visible
01 Apr 6.3 18:36:35 10° SW 18:39:54 34° SSE 18:42:48 13° E visible
01 Apr 9.0 20:25:07 10° W 20:25:10 10° W 20:25:10 10° W visible
02 Apr 9.6 03:47:47 10° N 03:50:45 13° NNE 03:54:11 10° NE visible
02 Apr 8.8 05:33:46 10° NW 05:41:04 38° NNE 05:48:40 10° E visible
02 Apr 5.8 18:28:14 10° SW 18:31:47 50° SSE 18:35:21 10° ENE visible
02 Apr 8.8 20:17:33 10° WNW 20:18:02 12° WNW 20:18:02 12° WNW visible
03 Apr 9.5 03:39:10 11° N 03:42:33 15° NNE 03:46:50 10° ENE visible
03 Apr 8.5 05:25:11 10° NW 05:32:39 45° NNE 05:40:33 10° E visible
03 Apr 8.6 20:10:14 10° WNW 20:10:56 12° NW 20:10:56 12° NW visible
04 Apr 9.3 03:31:50 14° N 03:34:18 17° NNE 03:39:16 10° ENE visible
04 Apr 8.2 05:16:39 10° NW 05:24:12 53° NNE 05:32:19 10° ESE visible
05 Apr 9.1 03:24:35 19° NNE 03:26:00 20° NNE 03:31:32 10° ENE visible
05 Apr 7.9 05:08:11 10° NW 05:15:43 63° NNE 05:24:00 10° ESE visible
06 Apr 8.9 03:17:24 23° NNE 03:17:40 23° NNE 03:23:39 10° E visible
06 Apr 7.6 04:59:46 10° NW 05:07:14 75° NNE 05:15:36 10° ESE visible
07 Apr 8.9 03:10:16 26° NE 03:10:16 26° NE 03:15:38 10° E visible
07 Apr 7.4 04:52:37 16° WNW 04:58:45 88° NE 05:07:06 10° ESE visible
08 Apr 8.9 03:03:09 26° ENE 03:03:09 26° ENE 03:07:30 10° E visible
08 Apr 7.3 04:45:30 24° WNW 04:50:16 78° SSW 04:58:32 10° SE visible
09 Apr 9.1 02:56:02 24° E 02:56:02 24° E 02:59:17 10° E visible
09 Apr 7.3 04:38:23 33° W 04:41:48 65° SSW 04:49:53 10° SE visible
10 Apr 9.3 02:48:53 19° E 02:48:53 19° E 02:50:58 10° ESE visible
10 Apr 7.4 04:31:14 41° WSW 04:33:22 54° SSW 04:41:09 10° SE visible
